FW3322 Weather Reports


Display with metric or nautical units.
time (UTC)temp
F
wind
direction
speed
MPH
gust
MPH
rain 1hr
in
rain 24hr
in
rain mn
in
humidity
%
barometer
mb
20260503054518 43 300 0.0 0.0 0.00 0.00 0.00 92 1020.8
20260503053016 43 300 0.0 0.0 0.00 0.00 0.00 91 1020.8
20260503051512 44 300 0.0 0.0 0.00 0.00 0.00 90 1021.0
20260503050026 44 300 0.0 0.0 0.00 0.00 0.00 89 1021.0
20260503044510 44 300 0.0 0.0 0.00 0.00 0.00 90 1021.1
20260503043011 45 300 0.0 0.0 0.00 0.00 0.00 89 1021.1
20260503041509 45 300 0.0 0.0 0.00 0.00 0.00 87 1021.1
20260503040007 46 300 0.0 0.0 0.00 0.00 0.00 87 1021.1
20260503034507 46 300 0.0 0.0 0.00 0.00 0.00 85 1021.2
20260503033006 47 300 0.0 0.0 0.00 0.00 0.00 83 1021.2
20260503031506 48 300 0.0 0.0 0.00 0.00 0.00 82 1021.2
20260503030007 49 300 0.0 0.0 0.00 0.00 0.00 80 1021.2
20260503024508 49 300 0.0 0.0 0.00 0.00 0.00 78 1021.1
20260503023004 50 300 0.0 0.0 0.00 0.00 0.00 75 1021.0
20260503021507 52 300 0.0 0.0 0.00 0.00 0.00 73 1020.8
20260503020004 53 300 0.0 0.0 0.00 0.00 0.00 71 1020.7
20260503014503 54 300 0.0 0.0 0.00 0.00 0.00 68 1020.6
20260503013007 56 300 0.0 0.0 0.00 0.00 0.00 64 1020.5
20260503011503 58 300 0.0 0.0 0.00 0.00 0.00 59 1020.4
20260503010002 61 300 0.0 0.0 0.00 0.00 0.00 56 1020.4
20260503004501 63 300 0.0 0.0 0.00 0.00 0.00 50 1020.5
20260503003001 65 281 0.0 3.0 0.00 0.00 0.00 44 1020.4
20260503001604 65 277 1.0 4.0 0.00 0.00 0.00 43 1020.4
20260503000108 66 197 1.0 4.0 0.00 0.00 0.00 42 1020.5
20260502234615 65 11 1.0 7.0 0.00 0.00 0.00 42 1020.5
20260502233109 66 218 3.0 8.0 0.00 0.00 0.00 42 1020.4
20260502231611 66 322 2.0 6.0 0.00 0.00 0.00 42 1020.5
20260502230057 66 294 3.0 7.0 0.00 0.00 0.00 42 1020.7
20260502224555 66 280 1.0 6.0 0.00 0.00 0.00 42 1020.6
20260502223055 66 220 2.0 8.0 0.00 0.00 0.00 43 1020.7
20260502221602 66 304 4.0 9.0 0.00 0.00 0.00 43 1020.6
20260502220051 65 15 3.0 8.0 0.00 0.00 0.00 43 1020.8
20260502214554 65 18 1.0 7.0 0.00 0.00 0.00 44 1020.9
20260502213053 65 298 3.0 10.0 0.00 0.00 0.00 43 1021.0
20260502211549 65 284 6.0 11.0 0.00 0.00 0.00 42 1021.1
20260502210048 65 38 2.0 11.0 0.00 0.00 0.00 44 1021.2
20260502204551 64 300 6.0 11.0 0.00 0.00 0.00 44 1021.4
20260502203148 64 38 3.0 15.0 0.00 0.00 0.00 45 1021.6
20260502201549 65 345 4.0 9.0 0.00 0.00 0.00 43 1021.7
20260502200045 64 351 5.0 13.0 0.00 0.00 0.00 44 1021.9
20260502194541 63 97 4.0 10.0 0.00 0.00 0.00 46 1021.8
20260502193041 63 342 8.0 18.0 0.00 0.00 0.00 44 1022.0
20260502191541 63 10 4.0 12.0 0.00 0.00 0.00 45 1022.1
20260502190039 62 26 4.0 14.0 0.00 0.00 0.00 44 1022.2
20260502184538 62 344 5.0 13.0 0.00 0.00 0.00 44 1022.4
20260502183040 63 11 8.0 14.0 0.00 0.00 0.00 43 1022.5
20260502181535 62 253 3.0 14.0 0.00 0.00 0.00 46 1022.5
20260502163033 59 11 9.0 14.0 0.00 0.00 0.00 48 1023.2
20260502161522 59 11 7.0 11.0 0.00 0.00 0.00 47 1023.3
20260502151514 57 21 7.0 15.0 0.00 0.00 0.00 52 1023.2
20260502123048 46 319 0.0 1.0 0.00 0.00 0.00 82 1022.3
20260502121550 0 0.0 0.0 0.00 0.00 0.00 1022.1
20260502114536 0 0.0 0.0 0.00 0.00 0.00 1021.6
20260502113030 44 298 0.0 1.0 0.00 0.00 0.00 86 1021.4
20260502111527 45 281 0.0 1.0 0.00 0.00 0.00 84 1021.3
20260502110026 45 296 0.0 1.0 0.00 0.00 0.00 84 1021.1
20260502104539 45 305 0.0 2.0 0.00 0.00 0.00 83 1020.9
20260502103028 45 313 1.0 2.0 0.00 0.00 0.00 84 1020.9
20260502101521 45 306 0.0 1.0 0.00 0.00 0.00 85 1020.7
20260502091521 47 310 0.0 1.0 0.00 0.00 0.00 82 1020.7